TimeEDT,TemperatureF,Dew PointF,Humidity,Sea Level PressureIn,VisibilityMPH,Wind Direction,Wind SpeedMPH,Gust SpeedMPH,PrecipitationIn,Events,Conditions,WindDirDegrees,DateUTC
12:53 AM,57.9,51.1,78,29.83,10.0,North,6.9,-,N/A,,Clear,10,2012-10-28 04:53:00
1:53 AM,59.0,52.0,78,29.81,10.0,NNE,13.8,20.7,N/A,,Mostly Cloudy,20,2012-10-28 05:53:00
2:53 AM,59.0,51.1,75,29.81,10.0,NNE,11.5,-,N/A,,Overcast,30,2012-10-28 06:53:00
3:53 AM,59.0,48.9,69,29.78,10.0,NNE,10.4,-,N/A,,Overcast,20,2012-10-28 07:53:00
4:53 AM,59.0,46.9,64,29.78,10.0,NNE,11.5,-,N/A,,Overcast,20,2012-10-28 08:53:00
5:53 AM,57.9,46.0,65,29.76,10.0,NNE,10.4,-,N/A,,Overcast,20,2012-10-28 09:53:00
6:53 AM,57.9,42.1,56,29.75,10.0,NNE,13.8,20.7,N/A,,Overcast,30,2012-10-28 10:53:00
7:53 AM,57.9,41.0,53,29.76,10.0,NNE,12.7,18.4,N/A,,Overcast,30,2012-10-28 11:53:00
8:53 AM,57.9,44.1,60,29.77,10.0,NNE,11.5,21.9,N/A,,Overcast,30,2012-10-28 12:53:00
9:53 AM,57.9,45.0,62,29.76,10.0,NNE,13.8,21.9,N/A,,Overcast,20,2012-10-28 13:53:00
10:53 AM,59.0,46.9,64,29.75,10.0,NNE,12.7,21.9,N/A,,Overcast,20,2012-10-28 14:53:00
11:53 AM,60.1,46.9,62,29.73,10.0,NNE,15.0,20.7,N/A,,Overcast,30,2012-10-28 15:53:00
12:53 PM,60.1,46.9,62,29.70,10.0,NNE,17.3,23.0,N/A,,Overcast,30,2012-10-28 16:53:00
1:53 PM,60.1,45.0,57,29.67,10.0,NNE,12.7,-,N/A,,Overcast,20,2012-10-28 17:53:00
2:53 PM,60.1,43.0,53,29.64,10.0,NNE,12.7,21.9,N/A,,Overcast,30,2012-10-28 18:53:00
3:53 PM,59.0,42.1,53,29.66,10.0,NE,12.7,-,N/A,,Overcast,40,2012-10-28 19:53:00
4:53 PM,57.9,44.1,60,29.65,10.0,NNE,10.4,-,N/A,,Overcast,30,2012-10-28 20:53:00
5:35 PM,55.4,46.4,72,29.66,2.5,NNE,6.9,-,0.00,Rain,Light Rain,30,2012-10-28 21:35:00
5:53 PM,54.0,48.0,80,29.66,2.5,NNE,8.1,-,0.00,Rain,Light Rain,20,2012-10-28 21:53:00
6:53 PM,52.0,50.0,93,29.67,6.0,North,3.5,-,0.01,Rain,Light Rain,360,2012-10-28 22:53:00
7:53 PM,52.0,50.0,93,29.67,5.0,NNW,5.8,-,0.03,Rain,Light Rain,330,2012-10-28 23:53:00
8:00 PM,51.8,50.0,94,29.67,4.0,NNW,4.6,-,0.01,Rain,Light Rain,340,2012-10-29 00:00:00
8:20 PM,51.8,50.0,94,29.66,2.5,NNW,3.5,-,0.03,Rain,Light Rain,340,2012-10-29 00:20:00
8:53 PM,51.1,50.0,96,29.65,2.5,Calm,Calm,-,0.08,Rain,Rain,0,2012-10-29 00:53:00
9:06 PM,51.8,50.0,94,29.66,2.5,Calm,Calm,-,0.02,Rain,Rain,0,2012-10-29 01:06:00
9:39 PM,51.8,50.0,94,29.65,5.0,NW,3.5,-,0.05,Rain,Light Rain,310,2012-10-29 01:39:00
9:53 PM,51.1,50.0,96,29.64,6.0,NNW,3.5,-,0.05,Rain,Light Rain,330,2012-10-29 01:53:00
10:53 PM,51.1,50.0,96,29.62,5.0,NNW,3.5,-,0.04,Rain,Light Rain,340,2012-10-29 02:53:00
11:53 PM,51.1,48.9,92,29.61,3.0,NNW,5.8,-,0.05,Rain,Light Rain,330,2012-10-29 03:53:00